• In Uzbekistan
  • List of Countries
  • For 7 days
  • Water Temperature
  • Satellite Maps
  • Weather Map
  • Weather Widgets
  • user-avatar
    Login

    Hourly Weather Mbandaka

    Today, 22 January, Monday

    Time Temperature Precipitation Wind Pressure Humidity
    00:00 +24°C° 0 mm 0 mps 730 mmHg 41%
    01:00 +23°C° 0 mm 0 mps 730 mmHg 41%
    02:00 +23°C° 0 mm 0 mps 730 mmHg 42%
    03:00 +23°C° 0 mm 0 mps 730 mmHg 43%
    04:00 +22°C° 0 mm 0 mps 730 mmHg 43%
    05:00 +23°C° 0 mm 0 mps 730 mmHg 44%
    06:00 +23°C° 0 mm 0 mps 730 mmHg 45%
    07:00 +24°C° 0 mm 0 mps 731 mmHg 46%
    08:00 +27°C° 0 mm 0 mps 731 mmHg 40%
    09:00 +33°C° 0 mm 1 mps 731 mmHg 34%
    10:00 +36°C° 0 mm 1 mps 732 mmHg 28%
    11:00 +39°C° 0 mm 1 mps 731 mmHg 25%
    12:00 +40°C° 0 mm 1 mps 730 mmHg 21%
    13:00 +42°C° 0 mm 1 mps 729 mmHg 19%
    14:00 +41°C° 0 mm 1 mps 728 mmHg 18%
    15:00 +41°C° 0 mm 1 mps 728 mmHg 18%
    16:00 +40°C° 0 mm 1 mps 727 mmHg 18%
    17:00 +36°C° 0 mm 1 mps 727 mmHg 22%
    18:00 +31°C° 0 mm 0 mps 728 mmHg 27%
    19:00 +28°C° 0 mm 0 mps 728 mmHg 32%
    20:00 +30°C° 0 mm 1 mps 728 mmHg 35%
    21:00 +29°C° 0 mm 1 mps 729 mmHg 38%
    22:00 +28°C° 0 mm 1 mps 729 mmHg 42%
    23:00 +27°C° 0 mm 1 mps 729 mmHg 46%

    Tomorrow, 23 January, Tuesday

    Time Temperature Precipitation Wind Pressure Humidity
    00:00 +27°C° 0 mm 1 mps 729 mmHg 51%
    01:00 +26°C° 0 mm 1 mps 729 mmHg 56%
    02:00 +26°C° 0 mm 1 mps 729 mmHg 58%
    03:00 +26°C° 0 mm 1 mps 729 mmHg 61%
    04:00 +25°C° 0 mm 1 mps 729 mmHg 64%
    05:00 +25°C° 0.4 mm 1 mps 729 mmHg 68%
    06:00 +25°C° 0.4 mm 1 mps 730 mmHg 72%
    07:00 +23°C° 0.4 mm 0 mps 730 mmHg 77%
    08:00 +28°C° 0.2 mm 1 mps 730 mmHg 68%
    09:00 +30°C° 0.2 mm 1 mps 731 mmHg 60%
    10:00 +34°C° 0.2 mm 2 mps 731 mmHg 51%
    11:00 +35°C° 0.2 mm 2 mps 730 mmHg 47%
    12:00 +36°C° 0.2 mm 2 mps 730 mmHg 43%
    13:00 +37°C° 0.2 mm 2 mps 729 mmHg 39%
    14:00 +35°C° 0 mm 1 mps 729 mmHg 40%
    15:00 +35°C° 0 mm 1 mps 728 mmHg 40%
    16:00 +35°C° 0 mm 1 mps 728 mmHg 40%
    17:00 +33°C° 0 mm 1 mps 728 mmHg 47%
    18:00 +31°C° 0 mm 1 mps 728 mmHg 53%
    19:00 +29°C° 0 mm 1 mps 728 mmHg 60%
    20:00 +28°C° 0 mm 1 mps 729 mmHg 64%
    21:00 +27°C° 0 mm 1 mps 729 mmHg 68%
    22:00 +27°C° 0 mm 1 mps 730 mmHg 72%
    23:00 +27°C° 0 mm 1 mps 729 mmHg 72%

    Day after tomorrow, 24 January, Wednesday

    Time Temperature Precipitation Wind Pressure Humidity
    00:00 +27°C° 0 mm 2 mps 729 mmHg 71%
    01:00 +27°C° 0 mm 2 mps 729 mmHg 71%
    02:00 +27°C° 0 mm 2 mps 729 mmHg 73%
    03:00 +26°C° 0 mm 1 mps 729 mmHg 74%
    04:00 +26°C° 0 mm 1 mps 728 mmHg 76%
    05:00 +26°C° 0 mm 1 mps 729 mmHg 76%
    06:00 +26°C° 0 mm 1 mps 730 mmHg 76%
    07:00 +26°C° 0 mm 1 mps 730 mmHg 76%
    08:00 +29°C° 0 mm 2 mps 731 mmHg 66%
    09:00 +31°C° 0 mm 2 mps 731 mmHg 57%
    10:00 +34°C° 0 mm 2 mps 732 mmHg 47%
    11:00 +35°C° 0.1 mm 2 mps 731 mmHg 46%
    12:00 +35°C° 0.1 mm 2 mps 730 mmHg 44%
    13:00 +35°C° 0.1 mm 2 mps 729 mmHg 43%
    14:00 +35°C° 0.1 mm 2 mps 729 mmHg 45%
    15:00 +33°C° 0.1 mm 1 mps 728 mmHg 47%
    16:00 +32°C° 0.1 mm 1 mps 727 mmHg 49%
    17:00 +31°C° 0 mm 1 mps 728 mmHg 54%
    18:00 +30°C° 0 mm 1 mps 728 mmHg 59%
    19:00 +29°C° 0 mm 1 mps 729 mmHg 63%
    20:00 +26°C° 0 mm 0 mps 729 mmHg 65%
    21:00 +26°C° 0 mm 0 mps 729 mmHg 66%
    22:00 +26°C° 0 mm 0 mps 730 mmHg 67%
    23:00 +28°C° 0 mm 1 mps 730 mmHg 68%

    25 January, Thursday

    Time Temperature Precipitation Wind Pressure Humidity
    00:00 +27°C° 0 mm 1 mps 729 mmHg 69%
    01:00 +27°C° 0 mm 1 mps 729 mmHg 69%
    02:00 +26°C° 0 mm 1 mps 729 mmHg 71%
    03:00 +26°C° 0 mm 1 mps 729 mmHg 73%
    04:00 +25°C° 0 mm 1 mps 728 mmHg 76%
    05:00 +26°C° 0 mm 1 mps 729 mmHg 75%
    06:00 +26°C° 0 mm 1 mps 729 mmHg 75%
    07:00 +26°C° 0 mm 1 mps 730 mmHg 74%
    08:00 +29°C° 0 mm 1 mps 731 mmHg 65%
    09:00 +31°C° 0 mm 2 mps 731 mmHg 56%
    10:00 +35°C° 0 mm 2 mps 731 mmHg 47%
    11:00 +36°C° 0 mm 2 mps 731 mmHg 43%
    12:00 +36°C° 0 mm 1 mps 730 mmHg 38%
    13:00 +39°C° 0 mm 1 mps 729 mmHg 34%
    14:00 +37°C° 0 mm 1 mps 728 mmHg 36%
    15:00 +36°C° 0 mm 1 mps 728 mmHg 38%
    16:00 +33°C° 0 mm 0 mps 727 mmHg 40%
    17:00 +31°C° 0.1 mm 0 mps 727 mmHg 46%
    18:00 +29°C° 0.1 mm 0 mps 728 mmHg 52%
    19:00 +29°C° 0.1 mm 1 mps 728 mmHg 58%
    20:00 +29°C° 0 mm 1 mps 729 mmHg 61%
    21:00 +28°C° 0 mm 1 mps 729 mmHg 64%
    22:00 +28°C° 0 mm 1 mps 729 mmHg 67%
    23:00 +27°C° 0 mm 1 mps 729 mmHg 69%

    26 January, Friday

    Time Temperature Precipitation Wind Pressure Humidity
    00:00 +27°C° 0 mm 1 mps 729 mmHg 72%
    01:00 +26°C° 0 mm 1 mps 729 mmHg 74%
    02:00 +26°C° 0.1 mm 1 mps 729 mmHg 77%
    03:00 +25°C° 0.1 mm 1 mps 729 mmHg 80%
    04:00 +25°C° 0.1 mm 1 mps 728 mmHg 82%
    05:00 +23°C° 0.4 mm 0 mps 729 mmHg 83%
    06:00 +23°C° 0.4 mm 0 mps 730 mmHg 83%
    07:00 +23°C° 0.4 mm 0 mps 730 mmHg 84%
    08:00 +29°C° 0 mm 1 mps 730 mmHg 70%
    09:00 +32°C° 0 mm 1 mps 731 mmHg 57%
    10:00 +35°C° 0 mm 1 mps 731 mmHg 43%
    11:00 +37°C° 0 mm 1 mps 730 mmHg 37%
    12:00 +41°C° 0 mm 1 mps 729 mmHg 31%
    13:00 +40°C° 0 mm 0 mps 728 mmHg 25%
    14:00 +38°C° 0 mm 0 mps 727 mmHg 28%
    15:00 +36°C° 0 mm 0 mps 727 mmHg 31%
    16:00 +34°C° 0 mm 0 mps 726 mmHg 34%
    17:00 +32°C° 0 mm 0 mps 726 mmHg 38%
    18:00 +31°C° 0 mm 0 mps 727 mmHg 43%
    19:00 +31°C° 0 mm 1 mps 727 mmHg 47%
    20:00 +29°C° 0 mm 0 mps 728 mmHg 48%
    21:00 +28°C° 0 mm 0 mps 728 mmHg 50%
    22:00 +28°C° 0 mm 0 mps 729 mmHg 51%
    23:00 +29°C° 0 mm 1 mps 729 mmHg 54%

    27 January, Saturday

    Time Temperature Precipitation Wind Pressure Humidity
    00:00 +28°C° 0 mm 1 mps 728 mmHg 58%
    01:00 +28°C° 0 mm 1 mps 728 mmHg 61%
    02:00 +27°C° 0.2 mm 1 mps 728 mmHg 66%
    03:00 +26°C° 0.2 mm 1 mps 728 mmHg 71%
    04:00 +25°C° 0.2 mm 1 mps 728 mmHg 77%
    05:00 +25°C° 0.1 mm 1 mps 729 mmHg 79%
    06:00 +25°C° 0.1 mm 1 mps 729 mmHg 81%
    07:00 +26°C° 0.1 mm 1 mps 730 mmHg 83%
    08:00 +28°C° 0 mm 1 mps 730 mmHg 72%
    09:00 +31°C° 0 mm 2 mps 730 mmHg 62%
    10:00 +34°C° 0 mm 2 mps 730 mmHg 51%
    11:00 +35°C° 0 mm 1 mps 730 mmHg 45%
    12:00 +37°C° 0 mm 1 mps 729 mmHg 39%
    13:00 +40°C° 0 mm 1 mps 728 mmHg 34%
    14:00 +39°C° 0 mm 1 mps 727 mmHg 38%
    15:00 +36°C° 0 mm 1 mps 727 mmHg 42%
    16:00 +34°C° 0 mm 1 mps 726 mmHg 46%
    17:00 +32°C° 0.1 mm 1 mps 727 mmHg 53%
    18:00 +31°C° 0.1 mm 1 mps 727 mmHg 59%
    19:00 +29°C° 0.1 mm 1 mps 728 mmHg 66%
    20:00 +28°C° 0.4 mm 1 mps 728 mmHg 72%
    21:00 +27°C° 0.4 mm 1 mps 728 mmHg 77%
    22:00 +26°C° 0.4 mm 1 mps 729 mmHg 83%
    23:00 +26°C° 0.2 mm 1 mps 728 mmHg 85%
    Show more